Change the Weather History Date:

Wednesday, October 24, 2012

  Actual Average Record
Temperature  
Mean Temperature 52 °F -  
Max Temperature 57 °F 62 °F 84 °F (1952)
Min Temperature 46 °F 38 °F 17 °F (1999)
Degree Days  
Heating Degree Days 14    
Growing Degree Days 2 (Base 50)    
Moisture  
Dew Point 50 °F    
Average Humidity 91    
Maximum Humidity 96    
Minimum Humidity 76    
Precipitation  
Precipitation 0.01 in - - ()
Sea Level Pressure  
Sea Level Pressure 29.77 in    
Wind  
Wind Speed 13 mph (North)    
Max Wind Speed 24 mph    
Max Gust Speed 30 mph    
Visibility 3 miles    
Events Fog , Rain    
Averages and records for this station are not official NWS values.
T = Trace of Precipitation, MM = Missing Value Source: NWS Daily Summary

Daily Weather History Graph

Daily Weather History Graph

Search for Another Location

Airport or City:

Trip Planner

Search our weather history database for the weather conditions in past years. The results will help you decide how hot, cold, wet, or windy it might be!

Date:

Astronomy

Oct. 24, 2012 Rise Set
Actual Time 7:47 AM CDT 6:29 PM CDT
Civil Twilight 7:19 AM CDT 6:57 PM CDT
Nautical Twilight 6:46 AM CDT 7:30 PM CDT
Astronomical Twilight 6:14 AM CDT 8:02 PM CDT
Moon 3:49 PM CDT (10/24) 2:40 AM CDT (10/24)
Length of Visible Light 11h 38m
Length of Day
10h 41m
Waxing Gibbous, 76% of the Moon is Illuminated
Oct 24
Waxing Gibbous
Oct 29
Full
Nov 6
Last Quarter
Nov 13
New
Nov 20
First Quarter

Hourly Weather History & Observations

Time (CDT) Temp. Windchill Dew Point Humidity Pressure Visibility Wind Dir Wind Speed Gust Speed Precip Events Conditions
12:51 AM 51.8 °F - 48.2 °F 88% 29.76 in 0.8 mi North 6.9 mph - N/A   Mist
1:54 AM 51.1 °F - 50.0 °F 96% 29.76 in 0.2 mi North 4.6 mph - N/A Fog Fog
2:15 AM 53.6 °F - 51.8 °F 94% 29.79 in 0.5 mi NNW 9.2 mph - N/A Fog Fog
2:25 AM 53.6 °F - 51.8 °F 94% 29.79 in 1.5 mi NNW 9.2 mph - N/A   Overcast
2:54 AM 53.1 °F - 51.1 °F 93% 29.79 in 1.5 mi NNW 9.2 mph - N/A   Scattered Clouds
3:11 AM 53.6 °F - 51.8 °F 94% 29.80 in 1.5 mi NNW 8.1 mph - N/A   Mostly Cloudy
3:50 AM 55.4 °F - 53.6 °F 94% 29.80 in 2.0 mi North 10.4 mph - N/A   Overcast
3:54 AM 55.0 °F - 53.1 °F 93% 29.78 in 2.0 mi North 11.5 mph - N/A   Overcast
4:07 AM 55.4 °F - 53.6 °F 94% 29.79 in 2.0 mi North 11.5 mph - N/A   Overcast
4:54 AM 54.0 °F - 52.0 °F 93% 29.75 in 2.5 mi NNE 12.7 mph - N/A   Mostly Cloudy
5:37 AM 55.4 °F - 53.6 °F 94% 29.76 in 3.0 mi NNE 9.2 mph - N/A   Overcast
5:54 AM 55.9 °F - 53.1 °F 90% 29.75 in 3.0 mi NNE 6.9 mph - N/A   Overcast
6:10 AM 55.4 °F - 53.6 °F 94% 29.77 in 3.0 mi North 5.8 mph - N/A   Overcast
6:54 AM 55.9 °F - 53.1 °F 90% 29.76 in 3.0 mi North 9.2 mph - N/A   Overcast
7:18 AM 55.4 °F - 53.6 °F 94% 29.76 in 2.5 mi North 8.1 mph - N/A   Overcast
7:54 AM 55.0 °F - 53.1 °F 93% 29.75 in 2.0 mi North 9.2 mph - N/A   Overcast
8:05 AM 55.4 °F - 53.6 °F 94% 29.77 in 1.8 mi North 11.5 mph - 0.00 in Rain Light Rain
8:38 AM 55.4 °F - 53.6 °F 94% 29.77 in 1.0 mi North 16.1 mph - 0.00 in   Overcast
8:54 AM 55.0 °F - 53.1 °F 93% 29.76 in 1.0 mi North 16.1 mph - 0.00 in   Overcast
9:23 AM 55.4 °F - 53.6 °F 94% 29.78 in 0.5 mi North 17.3 mph - 0.00 in Fog , Rain Light Rain
9:54 AM 55.0 °F - 54.0 °F 96% 29.77 in 0.5 mi North 13.8 mph - 0.01 in Fog , Rain Light Rain
10:54 AM 57.0 °F - 55.0 °F 93% 29.77 in 0.8 mi North 16.1 mph - 0.00 in   Overcast
11:54 AM 57.0 °F - 55.0 °F 93% 29.76 in 0.8 mi NNW 15.0 mph - N/A   Overcast
12:42 PM 55.4 °F - 53.6 °F 94% 29.77 in 1.0 mi North 20.7 mph - 0.00 in Rain Light Rain
12:54 PM 55.0 °F - 53.1 °F 93% 29.75 in 1.0 mi North 20.7 mph - 0.00 in Rain Light Rain
1:20 PM 55.4 °F - 51.8 °F 88% 29.76 in 3.0 mi North 23.0 mph - 0.00 in   Overcast
1:30 PM 55.4 °F - 51.8 °F 88% 29.76 in 3.0 mi North 21.9 mph - 0.00 in   Overcast
1:54 PM 54.0 °F - 51.1 °F 90% 29.75 in 4.0 mi North 21.9 mph 27.6 mph 0.00 in   Overcast
2:54 PM 53.1 °F - 51.1 °F 93% 29.75 in 5.0 mi North 17.3 mph - N/A   Overcast
3:54 PM 53.1 °F - 50.0 °F 89% 29.74 in 2.0 mi North 18.4 mph 25.3 mph N/A   Overcast
4:03 PM 53.6 °F - 50.0 °F 88% 29.75 in 1.5 mi North 23.0 mph 26.5 mph N/A   Overcast
4:31 PM 51.8 °F - 50.0 °F 94% 29.76 in 2.0 mi North 16.1 mph - N/A   Overcast
4:43 PM 51.8 °F - 50.0 °F 94% 29.75 in 1.8 mi North 20.7 mph - N/A   Overcast
4:54 PM 52.0 °F - 50.0 °F 93% 29.74 in 1.5 mi North 20.7 mph - N/A   Overcast
5:09 PM 51.8 °F - 48.2 °F 88% 29.76 in 2.0 mi North 15.0 mph - N/A   Overcast
5:18 PM 51.8 °F - 48.2 °F 88% 29.76 in 1.8 mi North 18.4 mph - N/A   Overcast
5:32 PM 51.8 °F - 48.2 °F 88% 29.76 in 2.5 mi North 18.4 mph - N/A   Overcast
5:43 PM 51.8 °F - 48.2 °F 88% 29.76 in 3.0 mi North 15.0 mph - N/A   Overcast
5:54 PM 51.1 °F - 48.9 °F 92% 29.75 in 3.0 mi North 18.4 mph - N/A   Overcast
6:54 PM 50.0 °F - 48.0 °F 93% 29.76 in 5.0 mi North 18.4 mph - N/A   Overcast
7:54 PM 48.9 °F - 46.0 °F 90% 29.76 in 6.0 mi North 17.3 mph - N/A   Overcast
8:54 PM 48.9 °F - 45.0 °F 86% 29.76 in 5.0 mi North 18.4 mph - N/A   Overcast
9:54 PM 46.9 °F - 44.1 °F 90% 29.79 in 4.0 mi North 24.2 mph 28.8 mph N/A   Overcast
10:03 PM 46.4 °F 38.5 °F 42.8 °F 87% 29.80 in 4.0 mi North 21.9 mph 27.6 mph N/A   Overcast
10:11 PM 46.4 °F 38.5 °F 42.8 °F 87% 29.79 in 6.0 mi North 21.9 mph 29.9 mph N/A   Overcast
10:45 PM 48.2 °F - 41.0 °F 76% 29.77 in 10.0 mi North 20.7 mph - N/A   Overcast
10:54 PM 48.0 °F - 41.0 °F 77% 29.78 in 10.0 mi North 20.7 mph - N/A   Overcast
11:54 PM 46.9 °F - 39.9 °F 77% 29.75 in 10.0 mi North 16.1 mph - N/A   Overcast